{"data":{"norad_id":45185,"epoch":"2026-05-25T02:33:42.181344Z","epoch_age_seconds":76027,"freshness":"FRESH","line1":"1 45185U 20012H   26145.10673821  .00032495  00000+0  99053-3 0  9995","line2":"2 45185  53.1579  43.6623 0002868 116.0373 244.0924 15.33692851346601","mean_motion":15.33692851,"eccentricity":0.0002868,"inclination_deg":53.1579,"raan_deg":43.6623,"arg_perigee_deg":116.0373,"mean_anomaly_deg":244.0924,"bstar":0.00099053,"rev_number":34660,"period_min":93.891029032383,"perigee_km":462.84328758415,"apogee_km":466.76839959924,"semimajor_km":6842.9428435917,"source":"CELESTRAK","updated_at":"2026-05-25T13:38:16.381726Z"}}